User: anonymous
Location: Caltech
(34.1382°N, 118.1253°W)
Time: 13:58:46
(UTC-07:00)
Language:

PANSAT - Orbit

View from above orbital plane
View from above orbital plane
View from above satellite
View from above satellite

Ground track
Ground track

The orbit data is extracted from the following two-line orbital elements,

1 25520U 98064B   14106.85548443  .00004656  00000-0  18289-3 0  4676
2 25520 028.4587 284.0150 0004580 150.3308 345.8545 15.23168792857274
Epoch (UTC): 16 April 2014 20:31:53
Eccentricity: 0.0004580
inclination: 28.4587°
perigee height: 493 km
apogee height: 499 km
right ascension of ascending node: 284.0150°
argument of perigee: 150.3308°
revolutions per day: 15.23168792
mean anomaly at epoch: 345.8545°
orbit number at epoch: 85727

The dashed part of the orbit path shows where the satellite is in the earth's shadow,  

DLR